Flag for Germany Weather past 2 weeks in Dresden, Saxony, Germany

Now
57 °F

Passing clouds.


Feels Like: 55 °F
Forecast: 51 / 71 °F
Wind: 9 mph from Southwest

Location: Dresden-Klotzsche

Current Time: Apr 26, 2015 at 2:08:03 AM

Latest Report: Apr 26, 2015 at 1:20 AM


Visibility: N/A

Pressure: 29.80 "Hg

Humidity: 77%

Dew point: 50 °F

Location of DresdenLocation

Historic Weather in Dresden — Graph

°F

Dresden temperature yesterday

Maximum temperature yesterday: 70 °F (at 1:20 PM)
Minimum temperature yesterday: 48 °F (at 5:20 AM)
Average temperature yesterday: 59 °F

Past Weeks' High & Low Weather Summary

 TemperatureHumidityPressure
High70 °F (Apr 15, 3:20 PM)100% (Apr 23, 3:50 AM)30.45 "Hg (Apr 23, 3:50 AM)
Low32 °F (Apr 19, 4:50 AM)24% (Apr 21, 3:50 PM)29.77 "Hg (Apr 25, 2:50 PM)
Average51 °F60%30.12 "Hg
* Reported Apr 11 12:20 AM — Apr 26 12:50 AM, Dresden, Weather by CustomWeather, © 2015

Note: Actual official high and low records may vary slightly from our data, if they occured in-between our weather recording intervals... More about our weather records

Advertising

Dresden weather history for previous 24 hours

 ConditionsComfort  
Time TempWeatherWind HumidityBarometerVisibility
12:50 AM
Sun, Apr 26
57 °FClear.9 mph77%29.80 "Hg10 mi
12:20 AM59 °FLight rain. Partly cloudy.9 mph72%29.80 "HgN/A
11:20 PM
Sat, Apr 25
59 °FLight rain. Passing clouds.9 mph68%29.80 "HgN/A
10:50 PM61 °FPassing clouds.10 mph59%29.80 "HgN/A
10:20 PM59 °FClear.7 mph59%29.80 "Hg10 mi
9:50 PM59 °FClear.7 mph59%29.80 "Hg10 mi
9:20 PM61 °FClear.6 mph55%29.80 "Hg10 mi
8:50 PM61 °FPassing clouds.5 mph55%29.77 "HgN/A
8:20 PM61 °FSunny.5 mph52%29.77 "Hg10 mi
7:50 PM63 °FPassing clouds.6 mph49%29.77 "HgN/A
7:20 PM63 °FPassing clouds.6 mph49%29.77 "HgN/A
6:50 PM63 °FPassing clouds.5 mph45%29.77 "HgN/A
6:20 PM63 °FPassing clouds.8 mph45%29.77 "HgN/A
5:50 PM64 °FPassing clouds.12 mph43%29.77 "HgN/A
5:20 PM66 °FPassing clouds.8 mph35%29.77 "HgN/A
4:50 PM66 °FPassing clouds.12 mph30%29.77 "HgN/A
4:20 PM68 °FPassing clouds.10 mph28%29.77 "HgN/A
3:50 PM68 °FSunny.14 mph35%29.77 "Hg10 mi
3:20 PM68 °FPassing clouds.13 mph35%29.77 "HgN/A
2:50 PM70 °FPassing clouds.10 mph31%29.77 "HgN/A
2:20 PM68 °FPassing clouds.12 mph33%29.80 "HgN/A
1:50 PM68 °FPassing clouds.12 mph28%29.80 "HgN/A
1:20 PM70 °FPassing clouds.10 mph31%29.80 "HgN/A
12:50 PM68 °FSunny.14 mph26%29.80 "Hg10 mi
12:20 PM68 °FPassing clouds.12 mph28%29.83 "HgN/A
11:50 AM66 °FPassing clouds.9 mph32%29.83 "HgN/A
11:20 AM66 °FPassing clouds.6 mph35%29.83 "HgN/A
10:50 AM64 °FPassing clouds.8 mph40%29.86 "HgN/A
10:20 AM63 °FPassing clouds.9 mph42%29.86 "HgN/A
9:50 AM63 °FSunny.9 mph42%29.86 "Hg10 mi
9:20 AM59 °FSunny.10 mph48%29.86 "Hg10 mi
8:50 AM57 °FSunny.10 mph51%29.86 "Hg10 mi
8:20 AM55 °FSunny.10 mph55%29.86 "Hg10 mi
7:50 AM52 °FSunny.9 mph62%29.86 "Hg10 mi
7:20 AM52 °FPassing clouds.6 mph58%29.86 "HgN/A
6:50 AM50 °FSunny.5 mph62%29.86 "Hg10 mi
6:20 AM48 °FClear.6 mph66%29.86 "Hg10 mi
5:20 AM48 °FClear.8 mph66%29.86 "Hg10 mi
4:50 AM50 °FClear.7 mph62%29.86 "Hg10 mi
4:20 AM50 °FClear.9 mph62%29.86 "Hg10 mi
3:50 AM50 °FClear.10 mph62%29.86 "Hg10 mi
3:20 AM50 °FClear.10 mph62%29.86 "Hg10 mi
2:50 AM50 °FClear.10 mph67%29.86 "Hg10 mi
2:20 AM50 °FClear.9 mph67%29.86 "Hg10 mi
Weather by CustomWeather, © 2015

See weather overviewHow to use our weather pages